Regional Weather Roundup
Issued by NWS Charleston, SC

Current Version | Previous Version | Graphics & Text | Print | Product List | Glossary On
Versions: 1 2 3 4 5 6 7 8 9 10 11 12 13 14 15 16 17 18 19 20 21 22 23 24 25 26 27 28 29 30 31 32 33 34 35 36 37 38 39 40 41 42 43 44 45 46 47 48 49 50
000
ASUS42 KCHS 271512
RWRCHS

REGIONAL WEATHER ROUNDUP
NATIONAL WEATHER SERVICE CHARLESTON SC
1100 AM EDT WED MAY 27 2015

NOTE: "FAIR" INDICATES FEW OR NO CLOUDS BELOW 12,000 FEET WITH NO
SIGNIFICANT WEATHER AND/OR OBSTRUCTIONS TO VISIBILITY.

NOT ALL STATIONS ARE QUALITY CONTROLLED BY THE NATIONAL
WEATHER SERVICE. USE DATA WITH CAUTION...ESPECIALLY
DEWPOINT OBSERVATIONS.

SCZ027-030-031-034>040-042>050-271600-
...SOUTHEAST SOUTH CAROLINA...

CITY           SKY/WX    TMP DP  RH WIND       PRES   REMARKS
N CHARLESTON   MOSUNNY   81  66  60 S7        30.26F
WATERFRONT PAR   N/A     79  67  66 VRB3      30.24F
MOUNT PLEASANT FAIR      82  66  57 S9        30.27S
JOHNS ISLAND   CLOUDY    81  66  61 CALM      30.28S
PINOPOLIS        N/A     82  70  65 VRB2      30.19F
MONCKS CORNER  FAIR      82  68  61 S7        30.26F
SUMMERVILLE    FAIR      82  68  61 S3        30.27F
BEAUFORT MCAS  PTSUNNY   85  68  56 SE3       30.26F
BEAUFORT ARPT  FAIR      81  70  69 S3        30.26F
HILTON HEAD IS NOT AVBL
WALTERBORO     MOSUNNY   81  68  65 SE7       30.27S
ALLENDALE      CLOUDY    81  70  69 VRB5      30.26S

...SOUTHERN MIDLANDS AND PEE DEE...

CITY           SKY/WX    TMP DP  RH WIND       PRES   REMARKS
GEORGETOWN     NOT AVBL
KINGSTREE      NOT AVBL
ORANGEBURG     PTSUNNY   79  69  71 SW8       30.27S
BARNWELL       PTSUNNY   79  72  78 S5        30.28S
AIKEN          PTSUNNY   73  68  83 SW3       30.32R
MANNING        CLOUDY    79  59  50 S5        30.26F
COLUMBIA       PTSUNNY   80  68  66 W7        30.26S
SUMTER         PTSUNNY   82  69  65 SW8       30.24F
FLORENCE       LGT RAIN  79  71  76 CALM      30.26F
MYRTLE BEACH   MOSUNNY   82  68  61 S10       30.30S
N MYRTLE BEACH MOSUNNY   79  68  69 S8        30.28S

$$

GAZ063-065-086>088-099>101-113>116-118-119-134>141-150-271600-
...SOUTHEAST GEORGIA...

CITY           SKY/WX    TMP DP  RH WIND       PRES   REMARKS
SAVANNAH ARPT  PTSUNNY   81  66  60 S5        30.26S
HUNTER AAF     MOSUNNY   82  69  63 SE3       30.24S
FORT STEWART   MOSUNNY   82  67  60 E5        30.24S
STATESBORO     MOSUNNY   79  75  87 S3        30.27S
SYLVANIA       MOSUNNY   82  70  66 CALM      30.27S
CLAXTON        PTSUNNY   79  72  78 CALM      30.26S

...CSRA...CENTRAL AND FAR SOUTHEAST GEORGIA...

CITY           SKY/WX    TMP DP  RH WIND       PRES   REMARKS
THOMSON        PTSUNNY   78  71  79 CALM      30.30F
AUGUSTA-BUSH   CLOUDY    75  69  81 SE5       30.26S
AUGUSTA-DANIEL PTSUNNY   77  69  76 VRB6      30.28S
SWAINSBORO     CLOUDY   N/A N/A N/A CALM      30.28S
VIDALIA        MOSUNNY   79  70  73 SE3       30.26F
EASTMAN        PTSUNNY   80  73  81 CALM      30.27F
HAZLEHURST     PTSUNNY   81  73  76 CALM      30.25S
ALMA           PTSUNNY   80  70  71 S7        30.24F
WAYCROSS       PTSUNNY   80  71  74 CALM      30.24F
JESUP          FAIR      86  70  58 SE3       30.25S HX  90
BAXLEY         PTSUNNY   79  70  73 S5        30.25S
BRUNSWICK      MOSUNNY   82  64  54 SE9       30.26S
SAINT SIMONS   NOT AVBL

$$

SCZ027-028-034-036>038-045-046-048>050-GAZ119-141-271600-
...LAKE AND SUPPLEMENTAL COASTAL OBSERVATIONS...

STATION/POSITION TIME  TEMP    WIND        PRES    WAVE   SWELL
                       AIR SEA DIR/SP/G            HT/PER HT/PER/DIR
                 (UTC) (F)     (DEG/KT/KT) (MB)    (FT/S) (FT/S/D)
UPR LAKE MARION  NOT AVBL
WINYAH BAY       1345   78     190/  5     1024.0
LAKE MURRAY      1400   75     200/  3/  5 1024.4S
ACE BASIN NERRS  NOT AVBL
FORT PULASKI     1400   79 78  140/  5/  8 1025.4S
SAPELO ISLAND    1400   82     130/  6     1024.0S

$$

ANZ835-935-AMZ111-154-330-350-352-354-370-450-454-472-271600-
...C-MAN AND BUOY OBSERVATIONS...

STATION/POSITION TIME  TEMP    WIND        PRES    WAVE   SWELL
                       AIR SEA DIR/SP/G            HT/PER HT/PER/DIR
                 (UTC) (F)     (DEG/KT/KT) (MB)    (FT/S) (FT/S/D)
BUOY 41004       1450   77 77  110/  6/  6 1025.0R   3/ 7   3/ 7
BUOY 41008       1450   77 77  140/  6/  8 1024.9R   3/ 7   3/110/ 7
FOLLY BEACH CMAN 1500   79     180/  4/  5 1025.3F
CAPERS NEARSHORE 1408   78     210/  4/  6 1025.5R
FRIPP NEARSHORE  1400   81     170/  4/  6 1024.5R


STATION/POSITION TIME  TEMP    WIND        PRES    WAVE   SWELL
                       AIR SEA DIR/SP/G            HT/PER HT/PER/DIR
                 (UTC) (F)     (DEG/KT/KT) (MB)    (FT/S) (FT/S/D)
5E ST. MARYS GA  1421      79                N/A     3/ 6
FRYING PAN BUOY  1450   77 74  230/  2/  4 1026.4R   3/ 6   3/130/ 6
BUOY 41025       1450   75 77  160/ 10/ 12 1026.1R   3/ 7   2/130/ 7
CAPE LOOKOUT NC  1400   74     150/  8/  9 1025.3S
BUOY 41002       1450   73 74  100/ 12/ 14 1025.7R   4/ 8   3/120/ 8
BUOY 41010       1420   78 81   80/ 16/ 19 1022.8R
ST AUGUSTINE FL  1500   77 79  120/  5/  6 1024.7R


$$



USA.gov is the U.S. government's official web portal to all federal, state and local government web resources and services.